Weather History for West Palm Beach, FL

Change the Weather History Date:

Tuesday, August 28, 2012

  Actual Average Record
Temperature  
Mean Temperature 84 °F 83 °F  
Max Temperature 89 °F 90 °F 97 °F (1932)
Min Temperature 78 °F 76 °F 68 °F (1889)
Degree Days  
Heating Degree Days 0 0  
Month to date heating degree days 0 0  
Since 1 June heating degree days 0 0  
Since 1 July heating degree days 0 0  
Cooling Degree Days 19 18  
Month to date cooling degree days 510 504  
Year to date cooling degree days 2847 2652  
Since 1 June cooling degree days 1558 1543  
Growing Degree Days 34 (Base 50)    
Moisture  
Dew Point 76 °F    
Average Humidity 82    
Maximum Humidity 94    
Minimum Humidity 70    
Precipitation  
Precipitation 0.38 in 0.27 in 1.76 in (1957)
Month to date precipitation 22.66 7.13  
Year to date precipitation 61.47 39.90  
Snow  
Snow 0.00 in - - ()
Month to date snowfall 0.0  
Since 1 June snowfall 0.0  
Since 1 July snowfall 0.0  
Snow Depth 0.00 in    
Sea Level Pressure  
Sea Level Pressure 29.96 in    
Wind  
Wind Speed 10 mph (SSE)    
Max Wind Speed 23 mph    
Max Gust Speed 29 mph    
Visibility 9 miles    
Events Rain , Thunderstorm    
T = Trace of Precipitation, MM = Missing Value Source: NWS Daily Summary

Daily Weather History Graph

Daily Weather History Graph

Search for Another Location

Airport:

Trip Planner

Search our weather history database for the weather conditions in past years. The results will help you decide how hot, cold, wet, or windy it might be!

Date:

Astronomy

Aug. 28, 2012 Rise Set
Actual Time 6:58 AM EDT 7:44 PM EDT
Civil Twilight 6:34 AM EDT 8:07 PM EDT
Nautical Twilight 6:06 AM EDT 8:35 PM EDT
Astronomical Twilight 5:38 AM EDT 9:03 PM EDT
Moon 5:36 PM EDT (8/28) 3:58 AM EDT (8/28)
Length of Visible Light 13h 32m
Length of Day
12h 45m
Waxing Gibbous, 90% of the Moon is Illuminated
Aug 28
Waxing Gibbous
Aug 31
Full
Sep 8
Last Quarter
Sep 15
New
Sep 22
First Quarter

Hourly Weather History & Observations

Time (EDT) Temp. Heat Index Dew Point Humidity Pressure Visibility Wind Dir Wind Speed Gust Speed Precip Events Conditions
12:53 AM 82.0 °F 90.2 °F 77.0 °F 85% 29.95 in 10.0 mi SSE 13.8 mph - N/A   Mostly Cloudy
1:53 AM 82.0 °F 89.4 °F 75.9 °F 82% 29.94 in 10.0 mi SSE 15.0 mph 20.7 mph N/A   Mostly Cloudy
2:53 AM 82.0 °F 88.6 °F 75.0 °F 79% 29.93 in 10.0 mi SSE 12.7 mph - N/A   Mostly Cloudy
3:05 AM 82.4 °F 89.5 °F 75.2 °F 79% 29.92 in 10.0 mi SSE 10.4 mph - N/A Thunderstorm Thunderstorm
3:22 AM 82.4 °F 89.5 °F 75.2 °F 79% 29.93 in 2.0 mi South 15.0 mph 23.0 mph 0.00 in Rain , Thunderstorm Heavy Thunderstorms and Rain
3:24 AM 80.6 °F 87.1 °F 77.0 °F 89% 29.93 in 0.8 mi SSE 12.7 mph 23.0 mph 0.07 in Rain , Thunderstorm Heavy Thunderstorms and Rain
3:30 AM 80.6 °F 87.1 °F 77.0 °F 89% 29.94 in 8.0 mi SSE 10.4 mph 23.0 mph 0.21 in Rain , Thunderstorm Light Thunderstorms and Rain
3:53 AM 80.1 °F 85.8 °F 77.0 °F 90% 29.94 in 10.0 mi SSE 16.1 mph 24.2 mph 0.21 in Thunderstorm Thunderstorm
4:11 AM 78.8 °F - 73.4 °F 83% 29.94 in 10.0 mi South 8.1 mph - 0.02 in Rain , Thunderstorm Light Thunderstorms and Rain
4:43 AM 78.8 °F - 75.2 °F 89% 29.94 in 10.0 mi South 9.2 mph - 0.03 in   Mostly Cloudy
4:53 AM 78.1 °F - 75.0 °F 90% 29.94 in 10.0 mi South 13.8 mph - 0.03 in Rain Light Rain
5:53 AM 81.0 °F 87.3 °F 75.9 °F 85% 29.93 in 10.0 mi South 6.9 mph - 0.00 in Rain Light Rain
6:53 AM 80.1 °F 85.8 °F 77.0 °F 90% 29.94 in 10.0 mi South 8.1 mph - 0.03 in Rain Light Rain
7:53 AM 80.1 °F 86.4 °F 78.1 °F 94% 29.96 in 10.0 mi SSE 5.8 mph - 0.00 in   Mostly Cloudy
8:53 AM 82.0 °F 91.0 °F 78.1 °F 88% 29.97 in 10.0 mi South 8.1 mph - N/A   Mostly Cloudy
9:53 AM 84.0 °F 96.0 °F 79.0 °F 85% 29.99 in 10.0 mi South 9.2 mph - N/A   Mostly Cloudy
10:53 AM 87.1 °F 99.8 °F 78.1 °F 74% 29.99 in 10.0 mi SSE 13.8 mph - N/A   Mostly Cloudy
11:38 AM 87.8 °F 102.5 °F 78.8 °F 75% 30.00 in 10.0 mi SSE 13.8 mph - N/A   Mostly Cloudy
11:53 AM 88.0 °F 101.3 °F 78.1 °F 72% 30.00 in 10.0 mi SSE 15.0 mph - N/A   Mostly Cloudy
12:18 PM 87.8 °F 102.5 °F 78.8 °F 75% 29.99 in 10.0 mi SSE 15.0 mph 23.0 mph N/A   Mostly Cloudy
12:53 PM 89.1 °F 103.2 °F 78.1 °F 70% 29.98 in 10.0 mi SE 15.0 mph - N/A   Mostly Cloudy
1:53 PM 89.1 °F 103.2 °F 78.1 °F 70% 29.96 in 10.0 mi SE 17.3 mph - N/A   Mostly Cloudy
2:29 PM 87.8 °F 102.5 °F 78.8 °F 75% 29.97 in 10.0 mi SSE 18.4 mph 24.2 mph N/A Thunderstorm Thunderstorm
2:41 PM 82.4 °F 88.2 °F 73.4 °F 74% 29.98 in 10.0 mi SW 16.1 mph 28.8 mph N/A Thunderstorm Thunderstorm
2:53 PM 80.1 °F 83.6 °F 71.1 °F 74% 29.98 in 10.0 mi SW 10.4 mph - N/A Thunderstorm Thunderstorm
3:39 PM 80.6 °F 85.4 °F 73.4 °F 79% 29.96 in 10.0 mi South 11.5 mph - 0.00 in Rain Light Rain
3:53 PM 81.0 °F 85.8 °F 73.0 °F 77% 29.95 in 10.0 mi South 11.5 mph - 0.00 in   Mostly Cloudy
4:53 PM 84.0 °F 91.9 °F 75.0 °F 74% 29.94 in 10.0 mi SSE 6.9 mph - N/A   Mostly Cloudy
5:53 PM 84.0 °F 93.7 °F 77.0 °F 79% 29.94 in 10.0 mi SSE 11.5 mph - N/A   Mostly Cloudy
6:53 PM 82.9 °F 91.8 °F 77.0 °F 82% 29.96 in 10.0 mi South 8.1 mph - N/A   Mostly Cloudy
7:53 PM 82.9 °F 92.8 °F 78.1 °F 85% 29.97 in 10.0 mi SSE 10.4 mph - N/A   Mostly Cloudy
8:53 PM 80.1 °F 85.4 °F 75.9 °F 87% 29.99 in 10.0 mi West 3.5 mph - N/A   Scattered Clouds
9:53 PM 81.0 °F 87.3 °F 75.9 °F 85% 30.01 in 10.0 mi Calm Calm - 0.01 in Rain Light Rain
10:14 PM 82.4 °F 90.9 °F 77.0 °F 84% 30.01 in 1.5 mi SE 10.4 mph 20.7 mph 0.00 in Rain Heavy Rain
10:23 PM 80.6 °F 86.2 °F 75.2 °F 84% 30.01 in 10.0 mi SSE 6.9 mph 20.7 mph 0.10 in Rain Light Rain
10:53 PM 81.0 °F 87.3 °F 75.9 °F 85% 30.01 in 10.0 mi SSE 6.9 mph - 0.10 in   Scattered Clouds
11:53 PM 80.1 °F 85.8 °F 77.0 °F 90% 30.01 in 10.0 mi South 3.5 mph - N/A   Mostly Cloudy